• In Germany
  • List of Countries
  • For 7 days
  • Water Temperature
  • Satellite Maps
  • Weather Map
  • Weather Widgets
  • user-avatar
    Login

    Hourly Weather Gorlice

    Today, 12 December, Tuesday

    Time Temperature Precipitation Wind Pressure Humidity
    00:00 +5°C° 0 mm 8 mps 720 mmHg 79%
    01:00 +6°C° 0 mm 5 mps 720 mmHg 82%
    02:00 +7°C° 0 mm 6 mps 721 mmHg 81%
    03:00 +6°C° 0 mm 7 mps 721 mmHg 81%
    04:00 +6°C° 0 mm 8 mps 721 mmHg 80%
    05:00 +6°C° 0 mm 8 mps 721 mmHg 79%
    06:00 +6°C° 0 mm 8 mps 722 mmHg 78%
    07:00 +7°C° 0 mm 5 mps 721 mmHg 83%
    08:00 +7°C° 0 mm 5 mps 722 mmHg 83%
    09:00 +7°C° 0 mm 6 mps 723 mmHg 82%
    10:00 +8°C° 0 mm 7 mps 724 mmHg 81%
    11:00 +8°C° 0 mm 6 mps 724 mmHg 81%
    12:00 +8°C° 0 mm 6 mps 725 mmHg 81%
    13:00 +8°C° 0 mm 5 mps 725 mmHg 82%
    14:00 +7°C° 0 mm 4 mps 726 mmHg 84%
    15:00 +6°C° 0 mm 4 mps 727 mmHg 86%
    16:00 +7°C° 0 mm 3 mps 727 mmHg 88%
    17:00 +5°C° 0.1 mm 3 mps 728 mmHg 88%
    18:00 +6°C° 0.1 mm 2 mps 728 mmHg 88%
    19:00 +5°C° 0.1 mm 2 mps 729 mmHg 88%
    20:00 +5°C° 0.3 mm 2 mps 729 mmHg 86%
    21:00 +4°C° 0.3 mm 3 mps 730 mmHg 84%
    22:00 +4°C° 0.3 mm 3 mps 730 mmHg 82%
    23:00 +3°C° 0.5 mm 3 mps 731 mmHg 80%

    Tomorrow, 13 December, Wednesday

    Time Temperature Precipitation Wind Pressure Humidity
    00:00 +3°C° 0.5 mm 3 mps 731 mmHg 79%
    01:00 +2°C° 0.5 mm 3 mps 732 mmHg 77%
    02:00 +2°C° 0.4 mm 3 mps 732 mmHg 78%
    03:00 +3°C° 0.4 mm 2 mps 732 mmHg 78%
    04:00 +2°C° 0.4 mm 2 mps 732 mmHg 79%
    05:00 +2°C° 0.2 mm 2 mps 733 mmHg 80%
    06:00 +3°C° 0.2 mm 1 mps 733 mmHg 81%
    07:00 +3°C° 0.2 mm 1 mps 733 mmHg 82%
    08:00 +3°C° 0 mm 1 mps 733 mmHg 81%
    09:00 +3°C° 0 mm 1 mps 734 mmHg 80%
    10:00 +3°C° 0 mm 1 mps 734 mmHg 78%
    11:00 +3°C° 0 mm 1 mps 734 mmHg 77%
    12:00 +4°C° 0 mm 1 mps 733 mmHg 75%
    13:00 +4°C° 0 mm 1 mps 733 mmHg 74%
    14:00 +3°C° 0 mm 1 mps 733 mmHg 77%
    15:00 +2°C° 0 mm 1 mps 732 mmHg 80%
    16:00 +1°C° 0 mm 1 mps 732 mmHg 84%
    17:00 +1°C° 0 mm 1 mps 732 mmHg 85%
    18:00 +1°C° 0 mm 1 mps 732 mmHg 86%
    19:00 0°C° 0 mm 1 mps 731 mmHg 87%
    20:00 0°C° 0 mm 1 mps 731 mmHg 87%
    21:00 -2°C° 0 mm 2 mps 730 mmHg 87%
    22:00 -2°C° 0 mm 2 mps 730 mmHg 87%
    23:00 -2°C° 0 mm 2 mps 729 mmHg 86%

    Day after tomorrow, 14 December, Thursday

    Time Temperature Precipitation Wind Pressure Humidity
    00:00 -2°C° 0 mm 3 mps 728 mmHg 86%
    01:00 -2°C° 0 mm 3 mps 728 mmHg 85%
    02:00 -2°C° 0 mm 4 mps 727 mmHg 81%
    03:00 -2°C° 0 mm 5 mps 726 mmHg 77%
    04:00 -3°C° 0 mm 6 mps 725 mmHg 74%
    05:00 -2°C° 0 mm 6 mps 725 mmHg 73%
    06:00 -2°C° 0 mm 7 mps 724 mmHg 73%
    07:00 -2°C° 0 mm 7 mps 724 mmHg 72%
    08:00 -1°C° 0.1 mm 7 mps 723 mmHg 72%
    09:00 0°C° 0.1 mm 8 mps 723 mmHg 72%
    10:00 0°C° 0.1 mm 8 mps 723 mmHg 72%
    11:00 +2°C° 0 mm 7 mps 723 mmHg 71%
    12:00 +3°C° 0 mm 7 mps 723 mmHg 70%
    13:00 +3°C° 0 mm 6 mps 723 mmHg 69%
    14:00 +2°C° 0 mm 5 mps 724 mmHg 70%
    15:00 +1°C° 0 mm 5 mps 724 mmHg 72%
    16:00 0°C° 0 mm 4 mps 724 mmHg 73%
    17:00 0°C° 0 mm 4 mps 725 mmHg 75%
    18:00 0°C° 0 mm 3 mps 725 mmHg 77%
    19:00 0°C° 0 mm 3 mps 725 mmHg 79%
    20:00 0°C° 0 mm 3 mps 725 mmHg 79%
    21:00 -1°C° 0 mm 4 mps 725 mmHg 79%
    22:00 -1°C° 0 mm 4 mps 726 mmHg 78%
    23:00 -1°C° 0 mm 4 mps 725 mmHg 76%

    15 December, Friday

    Time Temperature Precipitation Wind Pressure Humidity
    00:00 -1°C° 0 mm 5 mps 724 mmHg 73%
    01:00 -1°C° 0 mm 5 mps 724 mmHg 70%
    02:00 -1°C° 0 mm 6 mps 723 mmHg 73%
    03:00 -1°C° 0 mm 7 mps 722 mmHg 75%
    04:00 -1°C° 0 mm 7 mps 721 mmHg 77%
    05:00 0°C° 0 mm 8 mps 720 mmHg 79%
    06:00 0°C° 0 mm 8 mps 720 mmHg 80%
    07:00 +1°C° 0 mm 8 mps 719 mmHg 81%
    08:00 +2°C° 0 mm 7 mps 719 mmHg 81%
    09:00 +3°C° 0 mm 6 mps 719 mmHg 82%
    10:00 +5°C° 0 mm 5 mps 719 mmHg 82%
    11:00 +4°C° 0.6 mm 4 mps 719 mmHg 82%
    12:00 +4°C° 0.6 mm 3 mps 719 mmHg 82%
    13:00 +4°C° 0.6 mm 3 mps 719 mmHg 82%
    14:00 +3°C° 0.2 mm 3 mps 720 mmHg 79%
    15:00 +2°C° 0.2 mm 3 mps 720 mmHg 77%
    16:00 +2°C° 0.2 mm 3 mps 721 mmHg 74%
    17:00 +1°C° 0 mm 3 mps 721 mmHg 75%
    18:00 +2°C° 0 mm 2 mps 721 mmHg 76%
    19:00 +1°C° 0 mm 2 mps 722 mmHg 78%
    20:00 +1°C° 0 mm 2 mps 722 mmHg 78%
    21:00 +2°C° 0 mm 1 mps 722 mmHg 78%
    22:00 +2°C° 0 mm 1 mps 722 mmHg 77%
    23:00 +1°C° 0 mm 1 mps 722 mmHg 77%

    16 December, Saturday

    Time Temperature Precipitation Wind Pressure Humidity
    00:00 +1°C° 0 mm 1 mps 722 mmHg 76%
    01:00 0°C° 0 mm 0 mps 722 mmHg 76%
    02:00 +1°C° 0 mm 1 mps 722 mmHg 76%
    03:00 +1°C° 0 mm 1 mps 722 mmHg 76%
    04:00 +1°C° 0 mm 1 mps 722 mmHg 76%
    05:00 +1°C° 0 mm 1 mps 723 mmHg 75%
    06:00 +1°C° 0 mm 1 mps 723 mmHg 74%
    07:00 -1°C° 0 mm 2 mps 724 mmHg 73%
    08:00 +1°C° 0 mm 2 mps 724 mmHg 72%
    09:00 +2°C° 0 mm 2 mps 725 mmHg 71%
    10:00 +1°C° 0 mm 3 mps 725 mmHg 69%
    11:00 +2°C° 0 mm 3 mps 725 mmHg 71%
    12:00 +2°C° 0 mm 3 mps 726 mmHg 72%
    13:00 +2°C° 0 mm 3 mps 726 mmHg 73%
    14:00 +2°C° 0 mm 3 mps 726 mmHg 76%
    15:00 +2°C° 0 mm 2 mps 727 mmHg 79%
    16:00 +1°C° 0 mm 2 mps 727 mmHg 83%
    17:00 +1°C° 0 mm 2 mps 728 mmHg 82%
    18:00 -1°C° 0 mm 2 mps 728 mmHg 82%
    19:00 -1°C° 0 mm 2 mps 729 mmHg 82%
    20:00 -1°C° 0 mm 2 mps 729 mmHg 83%
    21:00 -2°C° 0 mm 2 mps 730 mmHg 84%
    22:00 -2°C° 0 mm 2 mps 730 mmHg 85%
    23:00 -2°C° 0 mm 2 mps 731 mmHg 85%

    17 December, Sunday

    Time Temperature Precipitation Wind Pressure Humidity
    00:00 -2°C° 0 mm 2 mps 731 mmHg 85%
    01:00 -2°C° 0 mm 2 mps 731 mmHg 85%
    02:00 -2°C° 0 mm 2 mps 732 mmHg 85%
    03:00 -2°C° 0 mm 2 mps 732 mmHg 85%
    04:00 0°C° 0 mm 1 mps 732 mmHg 86%
    05:00 0°C° 0 mm 1 mps 732 mmHg 86%
    06:00 0°C° 0 mm 1 mps 733 mmHg 86%
    07:00 -1°C° 0 mm 1 mps 733 mmHg 86%
    08:00 -2°C° 0 mm 2 mps 733 mmHg 83%
    09:00 -1°C° 0 mm 2 mps 734 mmHg 79%
    10:00 +1°C° 0 mm 2 mps 734 mmHg 75%
    11:00 +1°C° 0 mm 2 mps 734 mmHg 73%
    12:00 +2°C° 0 mm 2 mps 734 mmHg 70%
    13:00 +2°C° 0 mm 2 mps 735 mmHg 68%
    14:00 +1°C° 0 mm 2 mps 735 mmHg 73%
    15:00 -1°C° 0 mm 2 mps 735 mmHg 77%
    16:00 0°C° 0 mm 1 mps 735 mmHg 82%
    17:00 0°C° 0 mm 1 mps 736 mmHg 83%
    18:00 0°C° 0 mm 1 mps 736 mmHg 84%
    19:00 0°C° 0 mm 1 mps 737 mmHg 85%
    20:00 0°C° 0 mm 1 mps 737 mmHg 86%
    21:00 -2°C° 0 mm 2 mps 737 mmHg 87%
    22:00 -2°C° 0 mm 2 mps 738 mmHg 88%
    23:00 -2°C° 0 mm 2 mps 738 mmHg 89%
    Show more